DW9177 Weather Reports


Display with metric or nautical units.
time (UTC)temp
F
wind
direction
speed
MPH
gust
MPH
rain 1hr
in
rain 24hr
in
rain mn
in
humidity
%
barometer
mb
20260503044523 77 98 1.0 4.0 0.00 0.00 0.00 32 1008.3
20260503043022 78 44 4.0 15.0 0.00 0.00 0.00 30 1007.9
20260503041523 77 60 4.0 12.0 0.00 0.00 0.00 31 1007.7
20260503040028 77 58 3.0 7.0 0.00 0.00 0.00 30 1007.5
20260503034521 78 51 3.0 11.0 0.00 0.00 0.00 30 1007.4
20260503033022 78 56 1.0 9.0 0.00 0.00 0.00 29 1007.3
20260503031520 79 35 4.0 9.0 0.00 0.00 0.00 29 1007.2
20260503030019 79 76 2.0 8.0 0.00 0.00 0.00 28 1007.0
20260503024519 79 82 2.0 6.0 0.00 0.00 0.00 28 1006.8
20260503023018 80 82 1.0 5.0 0.00 0.00 0.00 27 1006.9
20260503021519 81 68 3.0 7.0 0.00 0.00 0.00 26 1006.7
20260503020017 82 66 2.0 6.0 0.00 0.00 0.00 25 1006.8
20260503014516 82 58 2.0 5.0 0.00 0.00 0.00 24 1006.8
20260503013016 83 78 1.0 5.0 0.00 0.00 0.00 24 1006.8
20260503011526 83 120 1.0 4.0 0.00 0.00 0.00 23 1006.8
20260503010014 84 123 0.0 4.0 0.00 0.00 0.00 23 1006.9
20260503004514 84 114 1.0 3.0 0.00 0.00 0.00 22 1006.7
20260503003014 85 64 0.0 2.0 0.00 0.00 0.00 22 1006.8
20260503001513 86 98 3.0 6.0 0.00 0.00 0.00 21 1006.8
20260503000012 88 92 0.0 3.0 0.00 0.00 0.00 20 1006.6
20260502234528 86 145 2.0 9.0 0.00 0.00 0.00 21 1006.8
20260502233011 88 101 3.0 9.0 0.00 0.00 0.00 20 1006.8
20260502231509 88 121 0.0 5.0 0.00 0.00 0.00 19 1007.1
20260502230008 87 111 1.0 5.0 0.00 0.00 0.00 19 1007.1
20260502224511 87 309 2.0 8.0 0.00 0.00 0.00 18 1007.1
20260502223006 88 72 1.0 4.0 0.00 0.00 0.00 18 1007.4
20260502221504 89 150 1.0 7.0 0.00 0.00 0.00 17 1007.5
20260502220008 90 143 4.0 7.0 0.00 0.00 0.00 17 1007.7
20260502214602 90 314 1.0 6.0 0.00 0.00 0.00 16 1008.1
20260502213103 90 225 3.0 6.0 0.00 0.00 0.00 17 1008.3
20260502211555 90 290 0.0 8.0 0.00 0.00 0.00 16 1008.4
20260502210101 89 300 3.0 7.0 0.00 0.00 0.00 17 1008.7
20260502204604 89 315 0.0 8.0 0.00 0.00 0.00 16 1009.0
20260502203101 87 157 1.0 7.0 0.00 0.00 0.00 19 1009.1
20260502201548 89 302 0.0 8.0 0.00 0.00 0.00 18 1009.4
20260502200046 87 136 1.0 10.0 0.00 0.00 0.00 17 1009.6
20260502194549 86 143 6.0 11.0 0.00 0.00 0.00 21 1009.7
20260502193041 86 56 3.0 10.0 0.00 0.00 0.00 24 1009.7
20260502191542 83 124 2.0 8.0 0.00 0.00 0.00 26 1009.9
20260502190037 83 76 4.0 17.0 0.00 0.00 0.00 25 1010.3
20260502184539 85 220 0.0 5.0 0.00 0.00 0.00 26 1010.4
20260502183034 84 333 4.0 10.0 0.00 0.00 0.00 26 1010.9
20260502181535 82 283 1.0 7.0 0.00 0.00 0.00 28 1011.0
20260502163039 78 101 1.0 8.0 0.00 0.00 0.00 33 1011.5
20260502161512 77 326 3.0 10.0 0.00 0.00 0.00 35 1011.5
20260502151506 74 41 5.0 11.0 0.00 0.00 0.00 39 1011.6
20260502123036 63 64 0.0 3.0 0.00 0.00 0.00 46 1009.6
20260502121535 64 64 2.0 4.0 0.00 0.00 0.00 44 1009.6
20260502114534 60 68 0.0 2.0 0.00 0.00 0.00 41 1009.7
20260502113031 60 359 0.0 3.0 0.00 0.00 0.00 40 1009.8
20260502111532 59 147 0.0 0.0 0.00 0.00 0.00 41 1009.8
20260502110033 59 146 0.0 0.0 0.00 0.00 0.00 42 1009.7
20260502104530 59 146 0.0 0.0 0.00 0.00 0.00 41 1009.8
20260502103029 59 139 0.0 0.0 0.00 0.00 0.00 43 1009.5
20260502101526 60 9 0.0 0.0 0.00 0.00 0.00 41 1009.3
20260502091515 64 129 0.0 0.0 0.00 0.00 0.00 35 1009.2
20260502071503 65 107 0.0 0.0 0.00 0.00 0.00 35 1009.5
20260502070101 66 223 0.0 0.0 0.00 0.00 0.00 35 1009.7
20260502064659 66 117 0.0 0.0 0.00 0.00 0.00 33 1009.5
20260502063059 67 91 0.0 1.0 0.00 0.00 0.00 34 1009.4
20260502061558 68 137 0.0 0.0 0.00 0.00 0.00 34 1009.1
20260502060101 69 141 0.0 0.0 0.00 0.00 0.00 32 1009.0
20260502054558 71 231 0.0 0.0 0.00 0.00 0.00 30 1008.8
20260502053057 72 271 0.0 2.0 0.00 0.00 0.00 29 1008.7
20260502051556 72 274 0.0 3.0 0.00 0.00 0.00 29 1008.6
20260502050054 72 278 0.0 3.0 0.00 0.00 0.00 29 1008.6